Location: Cussy
(47.0410°N, 4.6412°E)
Time: 16:03:50
(UTC+00:00)

SL-8 Rocket - Pass Details

Date: 30 November 2020
Orbit: 958 x 990 km, 82.9° (Epoch: 28 January)

Event Time Altitude Azimuth Distance (km) Brightness Sun altitude
Rises 16:48:04 0° 353° (N) 3,678 6.9 -9.0°
Reaches altitude 10° 16:50:37 10° 356° (N) 2,731 6.2 -9.4°
Maximum altitude 16:56:51 66° 79° (E) 1,069 4.0 -10.3°
Drops below altitude 10° 17:03:04 10° 161° (SSE) 2,734 6.4 -11.3°
Sets 17:05:37 0° 164° (SSE) 3,681 7.1 -11.7°
